Temperature
3 3 3 3 3 3 3 3 3 2 2 2 2 2 2 2 2 2 2 2 2 2 2 1 1 1 1 1 1 1 1 1 0 1 1 1 1 1 1 1 1 1 1
3 3 3 3 3 3 2 2 2 2 2 2 2 2 2 2 2 1 1 1 1 1 1 1 1 1 1 1 1 1 0 0 0 0 0 1 1 1 0 0 0 0 0
2 2 2 2 2 2 2 2 2 2 2 2 1 1 1 1 1 1 1 1 1 1 1 1 0 0 0 0 0 -0 -0 -0 -0 -1 -0 -0 -0 -0 -0 -0 -0 -0 -0
2 2 2 2 1 1 1 1 1 1 1 1 1 1 1 1 1 1 0 0 0 0 0 0 0 -0 -0 -0 -0 -1 -1 -1 -1 -1 -1 -1 -1 -1 -1 -1 -1 -1 -1
1 1 1 1 1 1 1 1 1 1 1 1 1 0 0 0 0 0 -0 -0 -0 -0 -0 -0 -0 -0 -0 -1 -1 -1 -1 -1 -1 -1 -1 -1 -1 -1 -1 -1 -1 -1 -1
1 1 1 0 0 0 0 0 0 0 0 -0 -0 -0 -0 -0 -0 -0 -0 -1 -1 -1 -1 -1 -1 -1 -1 -1 -1 -1 -1 -2 -1 -1 -2 -2 -2 -2 -2 -2 -2 -2 -2
0 0 0 -0 -0 -0 -0 -0 -0 -0 -0 -0 -1 -1 -1 -1 -1 -1 -1 -1 -1 -1 -1 -1 -1 -1 -1 -1 -1 -2 -2 -2 -2 -2 -2 -2 -2 -2 -2 -2 -2 -2 -2
-0 -0 -0 -1 -1 -1 -1 -1 -1 -1 -1 -1 -1 -1 -1 -1 -1 -1 -1 -1 -1 -2 -2 -2 -2 -2 -2 -2 -2 -2 -2 -2 -2 -2 -2 -2 -2 -2 -2 -2 -2 -3 -3
-1 -1 -1 -1 -1 -1 -1 -1 -1 -1 -1 -1 -2 -2 -2 -2 -2 -2 -2 -2 -2 -2 -2 -2 -2 -2 -2 -2 -2 -2 -2 -2 -2 -2 -2 -2 -2 -2 -2 -3 -3 -3 -3
-1 -1 -1 -1 -1 -1 -2 -2 -2 -2 -2 -2 -2 -2 -2 -2 -2 -2 -2 -2 -2 -2 -3 -3 -3 -2 -2 -3 -3 -3 -3 -3 -3 -2 -2 -2 -3 -3 -3 -3 -3 -3 -4
-1 -1 -1 -2 -2 -2 -2 -2 -2 -2 -2 -2 -2 -3 -3 -2 -2 -3 -3 -3 -3 -3 -3 -3 -3 -3 -3 -3 -3 -3 -3 -3 -3 -3 -3 -3 -3 -3 -3 -3 -3 -4 -4
-2 -2 -2 -2 -2 -2 -2 -2 -3 -3 -3 -3 -3 -3 -3 -3 -3 -3 -3 -3 -3 -3 -3 -3 -3 -3 -3 -3 -3 -3 -3 -3 -3 -3 -3 -3 -3 -3 -3 -3 -3 -4 -4
-2 -2 -2 -2 -2 -3 -3 -3 -3 -3 -3 -3 -3 -3 -3 -3 -3 -3 -3 -3 -4 -4 -4 -4 -4 -4 -4 -4 -4 -4 -4 -4 -3 -4 -4 -4 -4 -3 -4 -4 -4 -4 -4
-2 -2 -3 -3 -3 -3 -3 -3 -3 -3 -3 -3 -3 -4 -4 -4 -4 -4 -4 -4 -4 -4 -4 -4 -4 -4 -4 -4 -4 -4 -4 -4 -4 -4 -4 -4 -4 -4 -4 -4 -4 -4 -4
-3 -3 -3 -3 -3 -3 -3 -3 -3 -3 -3 -4 -4 -4 -4 -4 -4 -4 -4 -4 -4 -4 -4 -4 -4 -4 -4 -4 -4 -4 -4 -4 -4 -4 -4 -4 -4 -4 -4 -4 -4 -5 -5
-3 -3 -3 -3 -4 -4 -4 -4 -4 -4 -4 -4 -4 -4 -4 -4 -4 -4 -4 -4 -4 -4 -4 -4 -4 -4 -4 -4 -4 -4 -4 -4 -5 -4 -5 -5 -5 -5 -5 -5 -5 -5 -5
-3 -3 -4 -4 -4 -4 -4 -4 -4 -4 -4 -4 -4 -4 -4 -4 -4 -4 -4 -4 -4 -4 -4 -4 -4 -4 -4 -4 -4 -5 -5 -5 -5 -5 -5 -5 -5 -5 -5 -5 -5 -5 -5
-4 -4 -4 -4 -4 -4 -4 -4 -4 -4 -4 -4 -4 -4 -4 -4 -4 -4 -4 -5 -5 -5 -5 -5 -4 -4 -5 -5 -5 -5 -5 -5 -5 -5 -5 -5 -5 -5 -5 -5 -5 -5 -5
-4 -4 -4 -4 -4 -5 -5 -5 -5 -5 -5 -5 -5 -5 -5 -5 -5 -5 -5 -5 -5 -5 -5 -5 -5 -5 -5 -5 -5 -5 -5 -5 -5 -5 -5 -5 -5 -5 -5 -5 -5 -5 -5
-4 -4 -5 -5 -5 -5 -5 -5 -5 -5 -5 -5 -5 -5 -5 -5 -5 -5 -5 -5 -5 -5 -5 -5 -5 -5 -5 -5 -5 -5 -5 -5 -5 -5 -5 -5 -5 -5 -5 -5 -5 -5 -5
-5 -5 -5 -5 -5 -5 -5 -5 -5 -5 -5 -5 -5 -5 -5 -5 -5 -5 -5 -5 -5 -5 -5 -5 -5 -5 -5 -5 -5 -5 -5 -5 -5 -5 -5 -5 -5 -5 -5 -5 -5 -5 -5
-5 -5 -5 -5 -5 -6 -6 -6 -6 -6 -5 -5 -5 -5 -5 -5 -5 -5 -5 -5 -5 -5 -5 -5 -5 -5 -5 -5 -5 -5 -5 -5 -5 -5 -5 -5 -5 -5 -6 -5 -5 -5 -5
-5 -5 -5 -5 -6 -6 -6 -6 -6 -6 -6 -5 -6 -6 -6 -5 -6 -5 -5 -5 -5 -5 -5 -5 -5 -5 -5 -5 -5 -5 -5 -5 -5 -5 -5 -5 -5 -5 -6 -5 -5 -5 -5
-5 -6 -6 -6 -6 -6 -6 -6 -6 -6 -6 -6 -6 -6 -6 -6 -6 -6 -5 -5 -6 -6 -5 -5 -5 -5 -5 -5 -5 -5 -5 -5 -5 -5 -5 -5 -5 -5 -6 -6 -6 -6 -6
-6 -6 -6 -6 -6 -6 -6 -6 -6 -6 -6 -6 -6 -6 -6 -6 -6 -6 -6 -6 -6 -6 -5 -6 -6 -5 -5 -5 -5 -5 -5 -5 -5 -5 -5 -5 -5 -6 -6 -6 -6 -6 -5
-6 -6 -6 -6 -6 -6 -6 -6 -6 -6 -6 -6 -6 -6 -6 -6 -6 -6 -6 -6 -6 -6 -6 -6 -6 -5 -5 -5 -5 -5 -5 -5 -5 -5 -5 -6 -6 -6 -6 -6 -6 -6 -5
Wind_Speed
1 2 2 2 2 3 3 3 3 3 3 3 3 4 4 4 4 5 5 5 5 5 5 6 6 5 5 4 4 5 5 5 7 6 5 6 6 6 6 7 7 7 6
1 1 2 1 2 2 3 3 3 3 3 4 4 4 4 5 5 5 5 5 5 6 6 6 6 5 6 5 5 5 6 6 7 7 6 6 7 6 6 6 6 6 6
1 1 1 1 2 3 3 3 3 3 3 4 4 5 5 5 5 5 6 6 6 6 6 6 6 6 7 5 6 6 5 6 6 6 6 5 5 5 5 5 6 5 6
1 1 2 2 2 3 3 2 3 3 3 4 4 5 5 5 5 5 6 6 6 6 6 6 7 7 7 6 6 6 6 6 6 5 5 5 5 5 4 5 5 5 5
2 2 2 2 2 2 2 2 2 3 3 4 4 5 5 4 5 5 6 6 6 6 6 6 7 7 7 7 6 6 6 6 5 5 5 5 5 4 4 4 5 5 6
2 2 2 2 2 2 2 2 2 3 3 3 4 5 5 4 5 6 6 6 6 6 6 6 6 7 7 9 9 9 8 8 7 6 6 6 6 6 5 5 5 5 5
3 2 2 2 2 2 2 2 3 3 3 3 4 4 5 5 6 7 7 6 6 6 7 6 5 5 7 7 8 9 9 10 10 8 8 8 7 6 6 6 6 6 7
2 2 2 2 2 2 2 3 3 3 3 3 4 4 4 5 5 6 6 6 6 6 7 7 7 6 6 6 7 7 8 8 8 8 8 8 7 7 7 6 6 6 6
3 3 3 3 3 3 3 3 3 3 3 3 4 4 5 5 5 5 6 5 5 6 6 6 7 7 7 8 7 7 7 7 8 9 10 9 9 8 6 4 4 4 5
3 3 3 3 3 4 4 4 3 3 4 4 4 4 5 5 5 6 6 4 5 5 5 5 7 8 8 8 6 7 7 6 6 6 6 6 6 7 7 6 5 5 4
3 3 3 3 3 4 4 3 3 3 4 4 4 4 4 5 6 6 6 4 5 5 5 4 4 6 7 8 7 6 7 6 5 5 4 4 3 3 4 5 5 5 5
2 2 3 3 3 3 3 3 3 3 3 3 3 4 4 4 5 5 6 6 6 5 5 4 4 5 6 7 6 6 7 6 4 4 3 3 3 3 3 4 5 6 6
2 2 2 3 3 3 3 3 3 3 3 3 3 3 3 3 4 5 6 6 6 5 4 5 5 5 5 5 6 6 5 4 3 3 3 3 3 3 3 3 3 3 4
3 3 2 3 3 3 3 3 3 3 3 3 3 3 3 4 4 3 3 3 4 4 4 4 5 5 4 4 4 4 3 3 3 3 3 3 2 2 2 2 3 3 3
3 3 3 2 3 3 3 3 3 4 4 4 4 4 4 4 4 5 4 3 3 3 3 3 3 3 3 2 2 2 2 2 3 2 2 2 2 2 2 2 2 3 3
2 3 2 2 2 2 2 3 3 5 5 6 6 6 5 6 6 6 6 5 5 4 3 3 3 3 3 3 2 2 2 2 2 2 2 2 2 2 2 2 2 3 3
3 3 2 2 2 2 3 3 3 3 4 5 5 6 6 6 6 6 5 4 4 3 3 3 3 3 3 3 3 3 3 2 2 2 2 2 2 2 2 2 2 2 2
3 3 3 3 3 3 3 3 3 3 3 3 3 4 5 5 5 5 5 3 2 2 3 3 3 3 3 3 3 3 2 2 2 2 2 2 2 2 3 3 3 3 3
3 3 3 3 3 3 3 3 3 3 3 3 3 3 4 4 4 4 3 2 2 3 3 3 3 3 3 3 2 2 2 2 2 2 2 2 2 2 2 3 3 3 3
3 4 3 3 3 3 3 3 3 3 3 3 3 3 3 2 2 2 2 2 3 3 3 3 3 3 3 3 2 2 2 2 2 2 2 2 2 2 3 3 3 3 3
3 3 4 3 3 3 3 3 3 3 3 3 3 3 4 3 3 3 2 2 2 3 3 3 3 3 3 2 2 2 2 2 2 2 2 2 2 2 2 3 3 2 2
2 3 3 3 3 3 3 3 3 3 3 3 3 3 4 3 3 3 2 3 3 3 3 3 3 3 3 3 3 3 3 2 2 2 2 2 2 2 2 2 2 2 2
3 3 3 3 3 3 3 3 3 3 3 3 3 3 3 2 3 3 3 3 3 2 3 3 3 3 3 3 3 3 3 3 3 3 3 2 2 2 2 2 2 2 2
3 3 3 3 3 3 3 3 3 3 3 3 3 3 3 3 3 3 3 3 3 3 3 3 3 3 4 3 3 3 3 3 3 4 4 4 3 2 2 2 2 2 2
3 3 3 3 3 3 3 3 3 3 3 3 3 2 3 3 3 3 3 3 3 3 3 3 3 3 4 4 4 3 3 4 4 4 4 3 3 3 2 2 2 2 2
3 3 3 3 3 3 3 3 3 3 3 2 2 2 2 2 2 3 3 3 3 3 3 3 4 4 4 3 4 3 3 3 3 3 3 2 2 2 2 1 1 1 1
Wind_Direction
271 258 236 221 209 211 215 216 219 223 223 225 230 233 233 233 231 230 231 235 236 238 238 242 245 249 250 248 249 251 251 256 266 278 284 288 285 287 295 295 294 291 288
265 253 249 234 221 220 227 227 224 226 227 228 230 234 236 236 234 235 238 238 240 242 243 246 247 248 247 250 249 252 255 256 265 275 281 287 288 287 291 294 301 298 293
249 239 245 237 229 230 236 236 236 234 234 232 231 235 238 239 238 239 240 242 243 244 244 246 250 249 249 250 252 254 259 260 261 266 276 286 291 292 296 297 300 300 298
244 230 242 240 235 238 239 237 243 245 245 244 239 241 242 242 243 242 244 246 248 248 249 249 250 250 250 252 253 253 258 261 260 263 273 281 291 293 291 294 300 304 301
252 238 249 256 251 244 239 237 243 250 255 256 252 250 247 246 244 246 247 248 249 251 250 248 247 247 249 252 254 255 255 257 258 262 269 276 281 285 284 288 290 301 299
255 252 257 258 259 250 242 239 243 251 254 254 253 257 259 257 250 250 251 251 250 251 253 252 249 242 242 245 250 256 256 255 255 255 261 266 271 275 280 279 286 294 296
257 256 257 255 257 259 253 246 251 258 260 262 262 263 266 267 261 256 253 254 253 253 254 254 252 248 246 248 250 252 254 253 252 256 256 260 264 265 268 272 274 276 282
253 254 256 256 263 268 261 256 261 264 264 266 266 266 268 270 266 259 260 253 255 255 254 252 250 251 247 248 250 253 257 257 259 258 258 258 259 260 257 261 270 280 283
251 254 257 257 262 265 262 261 261 261 266 268 266 264 266 270 266 263 264 258 256 257 255 253 249 250 247 249 251 254 258 262 260 258 260 261 262 257 256 258 258 265 282
259 261 262 259 257 259 261 265 264 261 264 269 264 263 265 270 272 269 263 252 256 260 260 254 245 247 252 250 252 254 256 262 270 265 259 257 253 242 238 241 245 251 275
269 266 264 259 258 256 259 258 255 255 260 264 267 269 267 269 272 272 267 250 250 256 259 257 253 249 253 256 257 255 257 266 266 262 262 266 262 254 251 254 254 248 257
269 263 264 266 266 258 252 252 248 248 255 261 264 272 275 273 270 271 266 255 259 255 258 258 258 258 261 265 263 256 258 266 261 253 253 257 264 269 271 272 272 268 265
269 267 270 271 264 255 249 247 248 248 252 260 261 268 278 278 271 264 264 259 259 256 258 261 264 266 270 267 258 257 255 253 248 247 250 261 271 275 279 283 293 296 294
269 275 271 264 266 262 255 249 246 250 253 255 264 269 276 278 277 275 271 262 255 255 256 253 251 252 256 261 262 255 253 253 251 251 253 267 276 273 270 269 276 289 296
262 266 268 265 266 268 264 258 254 254 255 260 262 269 270 275 282 285 280 265 257 256 255 252 256 259 260 261 262 264 257 251 254 253 247 260 266 268 270 272 273 279 283
253 263 265 265 266 267 272 278 260 256 268 266 268 269 274 277 284 285 280 271 262 253 253 258 257 254 256 260 263 268 258 251 253 248 249 254 255 262 273 278 273 272 279
245 256 263 262 262 263 267 275 287 280 262 264 271 275 275 283 284 285 285 277 262 247 246 252 257 256 257 260 261 260 260 259 255 243 247 253 255 258 259 264 272 280 287
250 252 253 254 254 253 258 267 275 283 295 293 280 279 286 286 285 285 281 276 266 253 252 248 253 255 258 259 258 260 261 257 250 245 245 250 253 257 259 262 262 271 281
249 247 248 252 254 253 255 261 266 270 278 288 297 295 295 288 287 290 276 262 266 266 260 253 252 251 253 253 253 249 245 242 241 244 246 249 252 256 262 265 268 267 274
245 243 249 250 252 254 253 257 262 265 275 282 287 296 303 293 286 293 281 266 264 268 264 258 255 254 251 246 243 241 239 235 230 238 246 250 253 254 259 263 264 261 268
243 241 242 247 248 251 253 257 261 265 274 280 282 291 301 289 286 287 286 276 269 270 268 261 256 254 252 243 233 231 237 239 234 239 247 251 254 258 262 262 259 260 262
237 239 238 242 250 249 253 257 260 263 271 275 283 291 298 288 288 287 287 280 275 274 274 268 261 257 253 244 237 230 234 239 240 240 248 252 252 255 257 257 261 266 262
231 235 240 243 247 253 258 256 257 263 268 271 278 283 285 284 286 287 289 290 287 283 280 273 268 265 261 256 243 235 234 236 243 242 240 244 245 246 250 255 261 265 266
228 232 238 242 245 249 252 255 258 263 268 273 277 278 279 281 284 290 292 297 295 290 286 279 269 265 262 264 261 251 246 248 250 242 233 231 234 240 246 249 258 261 266
225 232 238 239 243 249 254 259 261 265 269 273 279 284 286 287 289 293 297 301 298 292 292 288 279 269 256 255 260 265 257 249 251 246 231 227 223 232 240 250 255 265 275
226 230 234 238 243 248 253 257 259 264 269 277 284 287 290 289 291 295 296 300 301 294 295 293 284 277 268 261 256 254 248 242 240 242 230 225 217 222 233 244 257 265 274
Height
1469 1469 1469 1469 1470 1470 1470 1470 1471 1471 1472 1472 1473 1473 1474 1474 1474 1474 1475 1475 1475 1475 1475 1476 1476 1476 1476 1475 1475 1475 1475 1474 1472 1470 1469 1468 1467 1466 1464 1463 1462 1461 1460
1467 1467 1466 1466 1467 1467 1467 1468 1468 1468 1468 1469 1470 1470 1470 1470 1471 1471 1471 1471 1471 1471 1471 1471 1471 1472 1471 1471 1471 1470 1470 1469 1469 1466 1465 1464 1463 1462 1461 1460 1458 1457 1456
1464 1464 1464 1464 1464 1464 1464 1465 1465 1465 1465 1466 1466 1466 1466 1466 1467 1467 1467 1467 1467 1467 1467 1467 1467 1467 1467 1466 1466 1466 1465 1465 1464 1463 1461 1460 1459 1458 1457 1456 1455 1454 1453
1462 1462 1462 1461 1461 1462 1461 1462 1462 1462 1462 1462 1462 1462 1462 1462 1462 1462 1463 1462 1462 1462 1462 1462 1462 1462 1462 1462 1461 1461 1461 1461 1460 1459 1458 1456 1455 1454 1453 1452 1451 1450 1449
1459 1459 1459 1459 1459 1459 1458 1458 1459 1459 1459 1458 1458 1458 1458 1458 1458 1458 1458 1458 1457 1457 1457 1457 1457 1457 1457 1457 1457 1457 1457 1456 1455 1455 1454 1453 1452 1451 1450 1449 1448 1446 1445
1457 1457 1456 1456 1456 1456 1455 1455 1455 1455 1455 1455 1455 1454 1454 1454 1453 1454 1454 1453 1453 1452 1452 1452 1452 1452 1452 1452 1452 1452 1452 1452 1451 1451 1450 1449 1448 1448 1447 1446 1445 1443 1441
1454 1454 1453 1453 1453 1452 1452 1452 1452 1452 1451 1451 1451 1450 1450 1449 1449 1449 1449 1448 1448 1448 1447 1447 1447 1447 1447 1447 1447 1447 1447 1447 1447 1447 1446 1445 1445 1444 1443 1442 1441 1440 1438
1451 1450 1450 1450 1449 1449 1449 1449 1449 1448 1448 1447 1447 1446 1446 1445 1445 1445 1444 1444 1443 1443 1443 1443 1443 1443 1443 1443 1442 1442 1442 1442 1442 1442 1441 1441 1440 1440 1439 1439 1437 1436 1435
1447 1447 1447 1446 1446 1446 1446 1445 1445 1445 1444 1444 1443 1442 1442 1442 1442 1441 1441 1440 1440 1439 1439 1439 1438 1438 1439 1439 1438 1438 1438 1438 1438 1437 1437 1436 1436 1435 1435 1434 1433 1432 1431
1444 1444 1444 1443 1443 1443 1442 1442 1442 1441 1441 1440 1440 1439 1439 1438 1438 1437 1437 1437 1436 1435 1435 1435 1434 1434 1434 1434 1434 1434 1434 1433 1433 1432 1432 1431 1431 1430 1430 1430 1430 1429 1428
1442 1441 1440 1440 1440 1439 1439 1439 1439 1438 1438 1437 1436 1436 1435 1435 1434 1434 1433 1433 1432 1432 1431 1431 1430 1430 1431 1430 1430 1430 1430 1429 1429 1428 1428 1427 1427 1426 1426 1426 1426 1425 1425
1439 1438 1437 1437 1437 1437 1436 1436 1436 1435 1435 1434 1433 1432 1432 1431 1431 1430 1430 1429 1429 1429 1428 1427 1427 1427 1427 1427 1426 1426 1426 1426 1425 1424 1424 1423 1423 1423 1422 1422 1422 1422 1421
1436 1435 1435 1434 1434 1434 1433 1433 1433 1432 1431 1431 1430 1429 1429 1428 1427 1427 1426 1426 1425 1425 1424 1424 1424 1424 1424 1423 1423 1423 1423 1422 1422 1421 1420 1420 1420 1420 1419 1419 1419 1418 1417
1434 1433 1433 1432 1432 1431 1431 1430 1430 1429 1429 1428 1427 1426 1426 1425 1424 1424 1423 1422 1422 1422 1421 1421 1422 1421 1421 1420 1420 1420 1419 1419 1419 1418 1417 1417 1417 1417 1416 1416 1416 1415 1414
1431 1431 1430 1430 1429 1428 1428 1427 1427 1427 1426 1426 1425 1424 1423 1422 1422 1421 1421 1420 1419 1419 1419 1419 1419 1419 1418 1418 1417 1417 1416 1416 1416 1415 1415 1414 1414 1414 1414 1414 1413 1412 1412
1429 1428 1428 1427 1426 1426 1425 1424 1424 1424 1423 1422 1422 1421 1420 1420 1419 1419 1418 1417 1417 1417 1417 1416 1416 1415 1415 1415 1414 1414 1414 1413 1413 1413 1413 1412 1412 1412 1412 1411 1411 1410 1409
1427 1426 1425 1424 1424 1423 1422 1422 1421 1421 1420 1419 1418 1418 1417 1416 1416 1415 1415 1415 1414 1414 1414 1413 1413 1412 1412 1412 1412 1411 1411 1411 1411 1411 1411 1410 1410 1410 1410 1409 1409 1408 1407
1424 1424 1423 1422 1421 1421 1420 1419 1419 1418 1417 1416 1416 1415 1414 1413 1413 1412 1412 1412 1411 1411 1410 1410 1410 1410 1409 1409 1409 1409 1409 1409 1408 1408 1409 1408 1408 1408 1408 1407 1407 1406 1405
1421 1421 1420 1419 1419 1418 1417 1417 1416 1415 1414 1413 1413 1412 1412 1411 1410 1410 1409 1409 1408 1408 1407 1407 1407 1407 1407 1406 1406 1406 1406 1406 1406 1406 1406 1406 1406 1406 1406 1405 1405 1404 1404
1418 1418 1417 1417 1416 1415 1415 1414 1414 1413 1412 1411 1410 1410 1409 1408 1408 1407 1406 1406 1405 1405 1405 1404 1404 1404 1404 1404 1404 1404 1404 1404 1404 1404 1404 1404 1404 1404 1404 1403 1403 1402 1402
1415 1415 1415 1414 1413 1413 1412 1412 1411 1410 1410 1409 1408 1408 1407 1407 1406 1405 1404 1403 1403 1402 1402 1402 1402 1402 1401 1401 1401 1402 1402 1402 1402 1402 1402 1402 1402 1402 1402 1402 1401 1401 1400
1413 1412 1412 1411 1411 1411 1410 1409 1409 1408 1408 1407 1406 1406 1405 1404 1404 1403 1402 1401 1401 1400 1400 1400 1399 1399 1399 1399 1399 1399 1400 1400 1400 1400 1401 1401 1401 1400 1400 1400 1399 1399 1398
1410 1410 1410 1409 1409 1408 1408 1407 1407 1406 1405 1405 1404 1403 1403 1402 1401 1401 1400 1399 1399 1398 1398 1397 1397 1397 1397 1397 1397 1397 1398 1398 1398 1399 1399 1399 1399 1398 1398 1398 1398 1397 1397
1408 1408 1407 1407 1407 1406 1406 1405 1404 1404 1403 1402 1402 1401 1400 1400 1399 1398 1398 1397 1397 1396 1396 1395 1395 1395 1395 1395 1395 1395 1396 1396 1396 1396 1396 1397 1397 1397 1397 1397 1396 1396 1396
1406 1405 1405 1405 1404 1404 1403 1403 1402 1401 1401 1400 1399 1399 1398 1398 1397 1396 1396 1395 1395 1394 1394 1393 1393 1393 1393 1393 1393 1394 1394 1394 1394 1394 1395 1395 1395 1395 1395 1395 1395 1395 1394
1403 1403 1403 1403 1402 1402 1401 1400 1400 1399 1398 1398 1397 1397 1396 1396 1395 1394 1394 1393 1393 1392 1392 1391 1391 1391 1391 1391 1392 1392 1392 1392 1392 1393 1393 1393 1394 1394 1394 1394 1394 1394 1393